Notices

What's New in latest Release from April 7th, 2021:

- Updated Glossary, including Speed of Maximum Gust, and Total Hourly Precipitation

- Updated national and regional climate services offices contacts and prices information

- Addition of station inventory lists for 1981-2010, 1971-2000, and 1961-1990 Normals.

If you haven't already, please take our survey and provide feedback about our website: https://eccc.sondage-survey.ca/f/LanguageSelection.aspx?s=442ca660-fcf1-47c0-95a9-59707d6fd709

Hourly Data Report for September 26, 2017

VICTORIA UNIVERSITY CS
BRITISH COLUMBIA

48°27'25.200" N
123°18'16.600" W
60.10 m
1018598
71783
WYJ

Download Data

Hourly Data (September 2017)
Hourly Data Report for September 26, 2017
TIME
LST
Temp Definition
°C
Dew Point Definition
°C
Rel Hum Definition
%
Precip. Amount Definition
mm

Wind Dir Definition
10's deg

Wind Spd Definition
km/h
Visibility Definition
km
Stn Press Definition
kPa
Hmdx Definition


Wind Chill Definition


Weather Definition


00:00 12.0 11.1 94 0.0 31 4   101.33     LegendNANA
01:00 12.1 11.6 97 0.0 33 4   101.37     LegendNANA
02:00 14.0 12.5 91 0.0 34 6   101.39     LegendNANA
03:00 14.4 12.3 88 0.0 33 4   101.40     LegendNANA
04:00 13.6 12.4 92 0.0 34 6   101.43     LegendNANA
05:00 13.1 11.9 93 0.0 6 2   101.43     LegendNANA
06:00 13.4 12.6 95 0.0 31 2   101.48     LegendNANA
07:00 13.2 12.3 94 0.0 4 2   101.53     LegendNANA
08:00 14.5 13.1 91 0.0 35 1   101.54     LegendNANA
09:00 15.9 12.9 83 0.0 36 8   101.58     LegendNANA
10:00 17.2 12.9 76 0.0 1 8   101.56     LegendNANA
11:00 18.8 13.0 69 0.0 36 8   101.54     LegendNANA
12:00 19.6 12.8 65 0.0 36 9   101.51     LegendNANA
13:00 19.1 12.2 64 0.0 3 9   101.50     LegendNANA
14:00 19.8 12.5 63 0.0 1 10   101.48     LegendNANA
15:00 19.6 12.1 62 0.0 2 7   101.42     LegendNANA
16:00 19.2 12.1 63 0.0 1 7   101.37     LegendNANA
17:00 18.4 12.2 67 0.0 2 4   101.32     LegendNANA
18:00 16.8 12.1 74 0.0 33 3   101.32     LegendNANA
19:00 14.6 12.0 84 0.0 32 3   101.34     LegendNANA
20:00 14.8 12.0 83 0.0 34 3   101.36     LegendNANA
21:00 13.7 11.7 87 0.0 31 4   101.36     LegendNANA
22:00 13.2 11.5 90 0.0 1 5   101.38     LegendNANA
23:00 11.9 11.0 94 0.0 36 3   101.38     LegendNANA

Notes on Data Quality.

Legend

  • E = Estimated
  • M = Missing
  • NA = Not Available*
  • [empty] = Indicates an unobserved value
Date modified: